sat.trackr.live / text

‹ back to catalog

STARLINK-3755

NORAD 52307 · 2022-041AY

PAYLOAD ACTIVE UNKNOWN

§ Identity

Operator
Country
US
Launch date
2022-04-21
Launch site
AFETR
Launch vehicle
Mass (kg)
RCS (m²)

Purposes: comms

External: N2YO · Heavens-Above · Gunter

§ Orbital elements

Epoch: 2026-05-25T02:16:48.859680Z

Period
95.44 min
Inclination
53.2153°
Eccentricity
0.0001167
Mean motion
15.08835392 rev/d
Perigee alt
539.0 km
Apogee alt
540.6 km
Semi-major
6,917.9 km
B*
6.2437e-5
RAAN
116.1226°
Arg perigee
82.6240°
Mean anomaly
277.4885°
Rev number
22,604

§ Raw data

STARLINK-37551 52307U 22041AY  26145.09500995  .00000706  00000+0  62437-4 0  99992 52307  53.2153 116.1226 0001167  82.6240 277.4885 15.08835392226043

JSON: /api/v1/satellites/52307 · /tle

For live sub-satellite position, see the globe view (requires WebGL).

§ Visibility from observer

Set your observer location to see the next 7 days of passes ≥ 10°. The values pass through the URL so the page stays shareable.

No JS? Fill the form by hand. The geolocation button needs JavaScript.